,,,PA_Meas_PMT16A,,PR_Meas_QMR101_102,,RH_Meas_QMH101,,SR_Meas_QMS101,,TA_Meas_QMH101,,GenWind,,GenWind,
date,time,status,PA,status,PR,status,RH,status,SR,status,TA,status,DirAvg,status,SpdAvg,
2010-02-18, 00:00:05,VALID,1011.06,VALID,0,VALID,89.6255,VALID,0,VALID,24.4735,VALID,95,VALID,0,
2010-02-18, 00:01:05,VALID,1011.04,VALID,0,VALID,89.6102,VALID,0,VALID,24.4735,VALID,106,VALID,0.130469,
2010-02-18, 00:02:05,VALID,1011.07,VALID,0,VALID,89.6255,VALID,0,VALID,24.493,VALID,106,VALID,0,
2010-02-18, 00:03:05,VALID,1011.03,VALID,0,VALID,89.6636,VALID,0,VALID,24.5125,VALID,106,VALID,0,
2010-02-18, 00:04:05,VALID,1011.03,VALID,0,VALID,89.6941,VALID,0,VALID,24.5125,VALID,146,VALID,0.411328,
2010-02-18, 00:05:05,VALID,1011.04,VALID,0,VALID,89.6865,VALID,0,VALID,24.532,VALID,164,VALID,0.614453,
2010-02-18, 00:06:05,VALID,1011.02,VALID,0,VALID,89.6712,VALID,0,VALID,24.5125,VALID,174,VALID,0.759766,
2010-02-18, 00:07:05,VALID,1011.03,VALID,0,VALID,89.6179,VALID,0,VALID,24.4717,VALID,175,VALID,0.667969,
2010-02-18, 00:08:05,VALID,1011,VALID,0,VALID,89.6179,VALID,0,VALID,24.493,VALID,179,VALID,0.756641,
2010-02-18, 00:09:05,VALID,1011.01,VALID,0,VALID,89.6026,VALID,0,VALID,24.493,VALID,175,VALID,0.491016,
2010-02-18, 00:10:05,VALID,1011,VALID,0,VALID,89.6407,VALID,0.105969,VALID,24.4717,VALID,175,VALID,0.447266,
2010-02-18, 00:11:05,VALID,1010.96,VALID,0,VALID,89.6255,VALID,0,VALID,24.493,VALID,175,VALID,0.285937,
2010-02-18, 00:12:05,VALID,1010.98,VALID,0,VALID,89.6865,VALID,0,VALID,24.4717,VALID,181,VALID,0.584766,
2010-02-18, 00:13:05,VALID,1010.93,VALID,0,VALID,89.6712,VALID,0,VALID,24.4522,VALID,182,VALID,0.796875,
2010-02-18, 00:14:05,VALID,1010.93,VALID,0,VALID,89.6636,VALID,0,VALID,24.4735,VALID,160,VALID,0.548047,
2010-02-18, 00:15:05,VALID,1010.87,VALID,0,VALID,89.6789,VALID,0.105969,VALID,24.4735,VALID,152,VALID,0.313672,
2010-02-18, 00:16:05,VALID,1010.86,VALID,0,VALID,89.6941,VALID,0,VALID,24.4522,VALID,152,VALID,0.301953,
2010-02-18, 00:17:05,VALID,1010.84,VALID,0,VALID,89.7246,VALID,0,VALID,24.493,VALID,152,VALID,0,
2010-02-18, 00:18:05,VALID,1010.82,VALID,0,VALID,89.7551,VALID,0,VALID,24.4735,VALID,152,VALID,0,
2010-02-18, 00:19:05,VALID,1010.82,VALID,0,VALID,89.7856,VALID,0,VALID,24.4735,VALID,143,VALID,0,
2010-02-18, 00:20:05,VALID,1010.79,VALID,0,VALID,89.7856,VALID,0,VALID,24.493,VALID,117,VALID,0,
2010-02-18, 00:21:05,VALID,1010.78,VALID,0,VALID,89.8161,VALID,0,VALID,24.493,VALID,117,VALID,0,
2010-02-18, 00:22:05,VALID,1010.82,VALID,0,VALID,89.839,VALID,0,VALID,24.493,VALID,136,VALID,0,
2010-02-18, 00:23:05,VALID,1010.83,VALID,0,VALID,89.8238,VALID,0,VALID,24.5125,VALID,135,VALID,0,
2010-02-18, 00:24:05,VALID,1010.86,VALID,0,VALID,89.7932,VALID,0,VALID,24.5515,VALID,125,VALID,0,
2010-02-18, 00:25:05,VALID,1010.91,VALID,0,VALID,89.778,VALID,0,VALID,24.5515,VALID,137,VALID,0,
2010-02-18, 00:26:05,VALID,1010.92,VALID,0,VALID,89.7475,VALID,0,VALID,24.571,VALID,119,VALID,0,
2010-02-18, 00:27:05,VALID,1010.93,VALID,0,VALID,89.7551,VALID,0.105969,VALID,24.5691,VALID,125,VALID,0,
2010-02-18, 00:28:05,VALID,1010.95,VALID,0,VALID,89.7856,VALID,0.105969,VALID,24.5905,VALID,125,VALID,0,
2010-02-18, 00:29:05,VALID,1010.98,VALID,0,VALID,89.7856,VALID,0.105969,VALID,24.5691,VALID,127,VALID,0,
2010-02-18, 00:30:05,VALID,1011.02,VALID,0,VALID,89.7932,VALID,0.105969,VALID,24.5905,VALID,132,VALID,1.40391,
2010-02-18, 00:31:05,VALID,1011.04,VALID,0,VALID,89.7627,VALID,0,VALID,24.5515,VALID,131,VALID,1.31211,
2010-02-18, 00:32:05,VALID,1011.07,VALID,0,VALID,89.7399,VALID,0,VALID,24.5515,VALID,140,VALID,0.878906,
2010-02-18, 00:33:05,VALID,1011.1,VALID,0,VALID,89.7627,VALID,0,VALID,24.5125,VALID,139,VALID,1.39492,
2010-02-18, 00:34:05,VALID,1011.09,VALID,0,VALID,89.7856,VALID,0,VALID,24.5125,VALID,143,VALID,1.62031,
2010-02-18, 00:35:05,VALID,1011.06,VALID,0,VALID,89.8238,VALID,0.105969,VALID,24.493,VALID,145,VALID,0.902344,
2010-02-18, 00:36:05,VALID,1011.04,VALID,0,VALID,89.8314,VALID,0.105969,VALID,24.493,VALID,120,VALID,1.65078,
2010-02-18, 00:37:05,VALID,1010.98,VALID,0,VALID,89.8771,VALID,0.105969,VALID,24.5125,VALID,154,VALID,1.10234,
2010-02-18, 00:38:05,VALID,1010.94,VALID,0,VALID,89.9076,VALID,0,VALID,24.4522,VALID,139,VALID,1.27305,
2010-02-18, 00:39:05,VALID,1010.9,VALID,0,VALID,89.9381,VALID,0.105969,VALID,24.4522,VALID,131,VALID,1.79258,
2010-02-18, 00:40:05,VALID,1010.85,VALID,0,VALID,89.9763,VALID,0.105969,VALID,24.4717,VALID,134,VALID,1.52461,
2010-02-18, 00:41:05,VALID,1010.82,VALID,0,VALID,89.9686,VALID,0,VALID,24.454,VALID,147,VALID,1.12109,
2010-02-18, 00:42:05,VALID,1010.8,VALID,0.5,VALID,89.9763,VALID,0,VALID,24.454,VALID,172,VALID,0.15625,
2010-02-18, 00:43:05,VALID,1010.78,VALID,0,VALID,89.9991,VALID,0,VALID,24.4345,VALID,101,VALID,1.19844,
2010-02-18, 00:44:05,VALID,1010.75,VALID,0,VALID,90.0144,VALID,0,VALID,24.4345,VALID,164,VALID,0.896484,
2010-02-18, 00:45:05,VALID,1010.71,VALID,0,VALID,89.9991,VALID,0,VALID,24.4345,VALID,142,VALID,0.813672,
2010-02-18, 00:46:05,VALID,1010.72,VALID,0,VALID,90.0144,VALID,0,VALID,24.454,VALID,147,VALID,0.362109,
2010-02-18, 00:47:05,VALID,1010.68,VALID,0,VALID,90.0144,VALID,0,VALID,24.4345,VALID,123,VALID,0,
2010-02-18, 00:48:05,VALID,1010.69,VALID,0,VALID,90.0296,VALID,0,VALID,24.4132,VALID,128,VALID,0.0742188,
2010-02-18, 00:49:05,VALID,1010.66,VALID,0,VALID,90.0144,VALID,0,VALID,24.4132,VALID,126,VALID,0.43125,
2010-02-18, 00:50:05,VALID,1010.6,VALID,0,VALID,90.0296,VALID,0,VALID,24.4132,VALID,129,VALID,0.428516,
2010-02-18, 00:51:05,VALID,1010.61,VALID,0,VALID,90.0602,VALID,0,VALID,24.3937,VALID,141,VALID,0.461328,
2010-02-18, 00:52:05,VALID,1010.57,VALID,0,VALID,90.0678,VALID,0,VALID,24.415,VALID,127,VALID,0.678516,
2010-02-18, 00:53:05,VALID,1010.54,VALID,0,VALID,90.0678,VALID,0,VALID,24.3742,VALID,114,VALID,0.432422,
2010-02-18, 00:54:05,VALID,1010.51,VALID,0,VALID,90.0678,VALID,0,VALID,24.3742,VALID,142,VALID,0.591797,
2010-02-18, 00:55:05,VALID,1010.48,VALID,0.5,VALID,90.0983,VALID,0,VALID,24.3742,VALID,95,VALID,0,
2010-02-18, 00:56:05,VALID,1010.44,VALID,0,VALID,90.0907,VALID,0,VALID,24.3956,VALID,56,VALID,0.0105469,
2010-02-18, 00:57:05,VALID,1010.4,VALID,0,VALID,90.0907,VALID,0,VALID,24.3937,VALID,356,VALID,0.689062,
2010-02-18, 00:58:05,VALID,1010.38,VALID,0,VALID,90.083,VALID,0,VALID,24.3547,VALID,10,VALID,0.6,
2010-02-18, 00:59:05,VALID,1010.36,VALID,0,VALID,90.0907,VALID,0.105969,VALID,24.3566,VALID,14,VALID,0.2,
2010-02-18, 01:00:05,VALID,1010.34,VALID,0,VALID,90.0907,VALID,0,VALID,24.3566,VALID,356,VALID,0.346094,
2010-02-18, 01:01:05,VALID,1010.34,VALID,0,VALID,90.1059,VALID,0,VALID,24.3371,VALID,4,VALID,0,
2010-02-18, 01:02:05,VALID,1010.31,VALID,0,VALID,90.0907,VALID,0.105969,VALID,24.3371,VALID,9,VALID,0,
2010-02-18, 01:03:05,VALID,1010.32,VALID,0,VALID,90.1135,VALID,0,VALID,24.2963,VALID,9,VALID,0,
2010-02-18, 01:04:05,VALID,1010.33,VALID,0,VALID,90.1059,VALID,0,VALID,24.3371,VALID,9,VALID,0,
2010-02-18, 01:05:05,VALID,1010.35,VALID,0,VALID,90.1059,VALID,0,VALID,24.3176,VALID,9,VALID,0,
2010-02-18, 01:06:05,VALID,1010.34,VALID,0,VALID,90.0907,VALID,0,VALID,24.3176,VALID,313,VALID,0,
2010-02-18, 01:07:05,VALID,1010.35,VALID,0,VALID,90.0678,VALID,0,VALID,24.3176,VALID,313,VALID,0,
2010-02-18, 01:08:05,VALID,1010.39,VALID,0,VALID,90.0754,VALID,0.105969,VALID,24.2963,VALID,313,VALID,0,
2010-02-18, 01:09:05,VALID,1010.41,VALID,0,VALID,90.0678,VALID,0,VALID,24.3176,VALID,313,VALID,0,
2010-02-18, 01:10:05,VALID,1010.44,VALID,0,VALID,90.0602,VALID,0,VALID,24.3371,VALID,313,VALID,0,
2010-02-18, 01:11:05,VALID,1010.46,VALID,0,VALID,90.083,VALID,0,VALID,24.3176,VALID,313,VALID,0,
2010-02-18, 01:12:05,VALID,1010.49,VALID,0,VALID,90.083,VALID,0.105969,VALID,24.2981,VALID,313,VALID,0,
2010-02-18, 01:13:05,VALID,1010.53,VALID,0,VALID,90.0907,VALID,0,VALID,24.2786,VALID,311,VALID,0,
2010-02-18, 01:14:05,VALID,1010.55,VALID,0,VALID,90.083,VALID,0,VALID,24.2786,VALID,173,VALID,0,
2010-02-18, 01:15:05,VALID,1010.56,VALID,0,VALID,90.083,VALID,0,VALID,24.2786,VALID,132,VALID,0,
2010-02-18, 01:16:05,VALID,1010.55,VALID,0,VALID,90.0754,VALID,0,VALID,24.2786,VALID,132,VALID,0,
2010-02-18, 01:17:05,VALID,1010.57,VALID,0,VALID,90.0678,VALID,0,VALID,24.2786,VALID,132,VALID,0,
2010-02-18, 01:18:05,VALID,1010.57,VALID,0,VALID,90.0602,VALID,0,VALID,24.3194,VALID,132,VALID,0,
2010-02-18, 01:19:05,VALID,1010.56,VALID,0,VALID,90.0525,VALID,0,VALID,24.2981,VALID,132,VALID,0,
2010-02-18, 01:20:05,VALID,1010.54,VALID,0,VALID,90.0525,VALID,0,VALID,24.2768,VALID,132,VALID,0,
2010-02-18, 01:21:05,VALID,1010.53,VALID,0,VALID,90.0525,VALID,0,VALID,24.2981,VALID,122,VALID,0,
2010-02-18, 01:22:05,VALID,1010.55,VALID,0,VALID,90.083,VALID,0,VALID,24.2981,VALID,116,VALID,0,
2010-02-18, 01:23:05,VALID,1010.56,VALID,0,VALID,90.0525,VALID,0,VALID,24.2963,VALID,117,VALID,0,
2010-02-18, 01:24:05,VALID,1010.58,VALID,0,VALID,90.0602,VALID,0,VALID,24.3176,VALID,110,VALID,0,
2010-02-18, 01:25:05,VALID,1010.58,VALID,0,VALID,90.0983,VALID,0,VALID,24.2768,VALID,109,VALID,0,
2010-02-18, 01:26:05,VALID,1010.56,VALID,0,VALID,90.1059,VALID,0,VALID,24.2786,VALID,108,VALID,0,
2010-02-18, 01:27:05,VALID,1010.55,VALID,0,VALID,90.0907,VALID,0,VALID,24.2786,VALID,112,VALID,0,
2010-02-18, 01:28:05,VALID,1010.53,VALID,0,VALID,90.0754,VALID,0,VALID,24.2981,VALID,112,VALID,0,
2010-02-18, 01:29:05,VALID,1010.51,VALID,0,VALID,90.0907,VALID,0,VALID,24.2981,VALID,105,VALID,0,
2010-02-18, 01:30:05,VALID,1010.47,VALID,0,VALID,90.083,VALID,0.105969,VALID,24.2981,VALID,105,VALID,0,
2010-02-18, 01:31:05,VALID,1010.47,VALID,0,VALID,90.0449,VALID,0,VALID,24.2981,VALID,105,VALID,0,
2010-02-18, 01:32:05,VALID,1010.47,VALID,0,VALID,90.0602,VALID,0,VALID,24.2981,VALID,105,VALID,0,
2010-02-18, 01:33:05,VALID,1010.46,VALID,0,VALID,90.0983,VALID,0,VALID,24.2786,VALID,90,VALID,0,
2010-02-18, 01:34:05,VALID,1010.44,VALID,0,VALID,90.083,VALID,0,VALID,24.2591,VALID,64,VALID,0,
2010-02-18, 01:35:05,VALID,1010.41,VALID,0,VALID,90.0907,VALID,0,VALID,24.2591,VALID,52,VALID,0,
2010-02-18, 01:36:05,VALID,1010.42,VALID,0,VALID,90.083,VALID,0,VALID,24.2396,VALID,52,VALID,0,
2010-02-18, 01:37:05,VALID,1010.42,VALID,0,VALID,90.0907,VALID,0,VALID,24.2396,VALID,52,VALID,0,
2010-02-18, 01:38:05,VALID,1010.39,VALID,0,VALID,90.0449,VALID,0,VALID,24.2396,VALID,52,VALID,0,
2010-02-18, 01:39:05,VALID,1010.36,VALID,0,VALID,90.0907,VALID,0,VALID,24.2202,VALID,49,VALID,0,
2010-02-18, 01:40:05,VALID,1010.34,VALID,0,VALID,90.0754,VALID,0,VALID,24.2202,VALID,49,VALID,0,
2010-02-18, 01:41:05,VALID,1010.29,VALID,0,VALID,90.0678,VALID,0,VALID,24.2183,VALID,49,VALID,0,
2010-02-18, 01:42:05,VALID,1010.25,VALID,0,VALID,90.0525,VALID,0.105969,VALID,24.2183,VALID,49,VALID,0,
2010-02-18, 01:43:05,VALID,1010.23,VALID,0,VALID,90.0449,VALID,0,VALID,24.2183,VALID,49,VALID,0,
2010-02-18, 01:44:05,VALID,1010.22,VALID,0,VALID,90.0449,VALID,0,VALID,24.2202,VALID,49,VALID,0,
2010-02-18, 01:45:05,VALID,1010.22,VALID,0,VALID,90.0449,VALID,0.105969,VALID,24.1988,VALID,49,VALID,0,
2010-02-18, 01:46:05,VALID,1010.22,VALID,0,VALID,90.0602,VALID,0.105969,VALID,24.2202,VALID,49,VALID,0,
2010-02-18, 01:47:05,VALID,1010.23,VALID,0,VALID,90.0449,VALID,0,VALID,24.2007,VALID,49,VALID,0,
2010-02-18, 01:48:05,VALID,1010.21,VALID,0,VALID,90.0373,VALID,0.105969,VALID,24.2007,VALID,49,VALID,0,
2010-02-18, 01:49:05,VALID,1010.24,VALID,0,VALID,90.0296,VALID,0,VALID,24.2202,VALID,49,VALID,0,
2010-02-18, 01:50:05,VALID,1010.22,VALID,0,VALID,90.0296,VALID,0,VALID,24.2007,VALID,76,VALID,0,
2010-02-18, 01:51:05,VALID,1010.22,VALID,0,VALID,90.0144,VALID,0,VALID,24.1988,VALID,96,VALID,0,
2010-02-18, 01:52:05,VALID,1010.19,VALID,0,VALID,89.9839,VALID,0.105969,VALID,24.2183,VALID,96,VALID,0,
2010-02-18, 01:53:05,VALID,1010.19,VALID,0,VALID,89.9839,VALID,0,VALID,24.2378,VALID,96,VALID,0,
2010-02-18, 01:54:05,VALID,1010.15,VALID,0,VALID,90.0144,VALID,0,VALID,24.2183,VALID,97,VALID,0,
2010-02-18, 01:55:05,VALID,1010.17,VALID,0,VALID,89.9763,VALID,0.105969,VALID,24.2396,VALID,88,VALID,0,
2010-02-18, 01:56:05,VALID,1010.15,VALID,0.5,VALID,89.9991,VALID,0,VALID,24.2396,VALID,88,VALID,0,
2010-02-18, 01:57:05,VALID,1010.15,VALID,0,VALID,90.0068,VALID,0,VALID,24.2396,VALID,62,VALID,0,
2010-02-18, 01:58:05,VALID,1010.1,VALID,0,VALID,90.0144,VALID,0,VALID,24.2396,VALID,84,VALID,0,
2010-02-18, 01:59:05,VALID,1010.1,VALID,0,VALID,90.0296,VALID,0,VALID,24.2415,VALID,84,VALID,0,
2010-02-18, 02:00:05,VALID,1010.07,VALID,0,VALID,90.0602,VALID,0,VALID,24.2202,VALID,84,VALID,0,
2010-02-18, 02:01:05,VALID,1010.05,VALID,0,VALID,90.0373,VALID,0.105969,VALID,24.2202,VALID,83,VALID,0,
2010-02-18, 02:02:05,VALID,1010.01,VALID,0,VALID,90.022,VALID,0,VALID,24.2202,VALID,53,VALID,0,
2010-02-18, 02:03:05,VALID,1010.01,VALID,0,VALID,90.0373,VALID,0,VALID,24.2396,VALID,45,VALID,0,
2010-02-18, 02:04:05,VALID,1010.04,VALID,0,VALID,90.022,VALID,0,VALID,24.1793,VALID,45,VALID,0,
2010-02-18, 02:05:05,VALID,1010.01,VALID,0,VALID,90.0525,VALID,0.105969,VALID,24.2202,VALID,66,VALID,0,
2010-02-18, 02:06:05,VALID,1010.06,VALID,0,VALID,90.0525,VALID,0,VALID,24.2007,VALID,70,VALID,0,
2010-02-18, 02:07:05,VALID,1010.04,VALID,0,VALID,90.0449,VALID,0.105969,VALID,24.1793,VALID,70,VALID,0,
2010-02-18, 02:08:05,VALID,1010.08,VALID,0,VALID,90.0373,VALID,0.105969,VALID,24.1793,VALID,70,VALID,0,
2010-02-18, 02:09:05,VALID,1010.11,VALID,0,VALID,90.0296,VALID,0,VALID,24.2007,VALID,94,VALID,0,
2010-02-18, 02:10:05,VALID,1010.12,VALID,0,VALID,90.0068,VALID,0,VALID,24.2202,VALID,90,VALID,0.515234,
2010-02-18, 02:11:05,VALID,1010.1,VALID,0,VALID,90.0068,VALID,0.105969,VALID,24.2007,VALID,98,VALID,1.27031,
2010-02-18, 02:12:05,VALID,1010.08,VALID,0,VALID,90.0144,VALID,0,VALID,24.1793,VALID,97,VALID,0.820703,
2010-02-18, 02:13:05,VALID,1010.06,VALID,0,VALID,90.0296,VALID,0.105969,VALID,24.2007,VALID,94,VALID,1.08242,
2010-02-18, 02:14:05,VALID,1010.03,VALID,0,VALID,90.0449,VALID,0,VALID,24.2007,VALID,92,VALID,1.01094,
2010-02-18, 02:15:05,VALID,1009.99,VALID,0,VALID,90.0373,VALID,0,VALID,24.1812,VALID,98,VALID,0.992188,
2010-02-18, 02:16:05,VALID,1009.97,VALID,0,VALID,90.0296,VALID,0,VALID,24.2025,VALID,87,VALID,1.10508,
2010-02-18, 02:17:05,VALID,1009.94,VALID,0,VALID,90.0296,VALID,0.105969,VALID,24.1793,VALID,90,VALID,1.3625,
2010-02-18, 02:18:04,VALID,1009.92,VALID,0,VALID,90.0144,VALID,0,VALID,24.2007,VALID,117,VALID,0.642969,
2010-02-18, 02:19:04,VALID,1009.94,VALID,0,VALID,90.022,VALID,0.105969,VALID,24.2007,VALID,105,VALID,1.52695,
2010-02-18, 02:20:04,VALID,1009.94,VALID,0,VALID,90.0373,VALID,0,VALID,24.2202,VALID,119,VALID,0.65,
2010-02-18, 02:21:04,VALID,1009.95,VALID,0,VALID,90.0144,VALID,0,VALID,24.2396,VALID,100,VALID,0.490234,
2010-02-18, 02:22:04,VALID,1009.94,VALID,0,VALID,90.0449,VALID,0,VALID,24.2396,VALID,91,VALID,0.695703,
2010-02-18, 02:23:04,VALID,1010,VALID,0,VALID,90.0602,VALID,0.105969,VALID,24.2183,VALID,96,VALID,1.04766,
2010-02-18, 02:24:04,VALID,1010.03,VALID,0,VALID,90.0678,VALID,0,VALID,24.2396,VALID,111,VALID,0.676172,
2010-02-18, 02:25:04,VALID,1010.09,VALID,0,VALID,90.0678,VALID,0,VALID,24.2591,VALID,97,VALID,0.0261719,
2010-02-18, 02:26:04,VALID,1010.11,VALID,0,VALID,90.0678,VALID,0.105969,VALID,24.2378,VALID,125,VALID,1.22656,
2010-02-18, 02:27:04,VALID,1010.15,VALID,0,VALID,90.1135,VALID,0,VALID,24.2591,VALID,103,VALID,1.00742,
2010-02-18, 02:28:04,VALID,1010.13,VALID,0,VALID,90.0983,VALID,0.105969,VALID,24.2591,VALID,125,VALID,0.923828,
2010-02-18, 02:29:04,VALID,1010.12,VALID,0,VALID,90.1517,VALID,0.105969,VALID,24.2378,VALID,120,VALID,0.873828,
2010-02-18, 02:30:04,VALID,1010.11,VALID,0,VALID,90.1212,VALID,0.105969,VALID,24.2591,VALID,118,VALID,0.99375,
2010-02-18, 02:31:04,VALID,1010.09,VALID,0,VALID,90.1822,VALID,0,VALID,24.2183,VALID,111,VALID,0.811719,
2010-02-18, 02:32:04,VALID,1010.08,VALID,0,VALID,90.1822,VALID,0.105969,VALID,24.2591,VALID,106,VALID,0.844531,
2010-02-18, 02:33:04,VALID,1010.06,VALID,0,VALID,90.1669,VALID,0,VALID,24.2591,VALID,105,VALID,0.475,
2010-02-18, 02:34:04,VALID,1010.07,VALID,0,VALID,90.1974,VALID,0.105969,VALID,24.2396,VALID,98,VALID,0.699609,
2010-02-18, 02:35:04,VALID,1010.08,VALID,0,VALID,90.1974,VALID,0,VALID,24.2183,VALID,116,VALID,0.765234,
2010-02-18, 02:36:04,VALID,1010.05,VALID,0,VALID,90.1898,VALID,0,VALID,24.2396,VALID,106,VALID,0.239844,
2010-02-18, 02:37:04,VALID,1010.05,VALID,0,VALID,90.1974,VALID,0,VALID,24.2591,VALID,89,VALID,0.000390625,
2010-02-18, 02:38:04,VALID,1010.03,VALID,0,VALID,90.2203,VALID,0,VALID,24.2591,VALID,91,VALID,0.615625,
2010-02-18, 02:39:04,VALID,1010.02,VALID,0,VALID,90.2203,VALID,0,VALID,24.2591,VALID,90,VALID,0.197656,
2010-02-18, 02:40:04,VALID,1010.03,VALID,0,VALID,90.2279,VALID,0,VALID,24.2591,VALID,101,VALID,0.855859,
2010-02-18, 02:41:04,VALID,1010,VALID,0,VALID,90.205,VALID,0,VALID,24.2591,VALID,107,VALID,0.558594,
2010-02-18, 02:42:04,VALID,1010.04,VALID,0,VALID,90.2279,VALID,0,VALID,24.2591,VALID,108,VALID,0.70625,
2010-02-18, 02:43:04,VALID,1010.02,VALID,0,VALID,90.2127,VALID,0,VALID,24.2786,VALID,131,VALID,0.741406,
2010-02-18, 02:44:04,VALID,1010.04,VALID,0,VALID,90.2203,VALID,0,VALID,24.2786,VALID,123,VALID,0.205859,
2010-02-18, 02:45:04,VALID,1010.02,VALID,0,VALID,90.1974,VALID,0.105969,VALID,24.2786,VALID,140,VALID,0.492188,
2010-02-18, 02:46:04,VALID,1010,VALID,0,VALID,90.2127,VALID,0.105969,VALID,24.2573,VALID,140,VALID,0.506641,
2010-02-18, 02:47:04,VALID,1010.02,VALID,0,VALID,90.1898,VALID,0.105969,VALID,24.2591,VALID,129,VALID,0.143359,
2010-02-18, 02:48:04,VALID,1010.03,VALID,0,VALID,90.1974,VALID,0.105969,VALID,24.2183,VALID,143,VALID,0,
2010-02-18, 02:49:04,VALID,1010.01,VALID,0,VALID,90.1822,VALID,0,VALID,24.2396,VALID,143,VALID,0,
2010-02-18, 02:50:04,VALID,1010.01,VALID,0,VALID,90.1593,VALID,0.105969,VALID,24.2396,VALID,143,VALID,0,
2010-02-18, 02:51:04,VALID,1009.97,VALID,0,VALID,90.1593,VALID,0,VALID,24.2202,VALID,145,VALID,0,
2010-02-18, 02:52:04,VALID,1009.97,VALID,0,VALID,90.1745,VALID,0,VALID,24.1793,VALID,143,VALID,0,
2010-02-18, 02:53:04,VALID,1009.93,VALID,0,VALID,90.1745,VALID,0.105969,VALID,24.1793,VALID,143,VALID,0,
2010-02-18, 02:54:04,VALID,1009.9,VALID,0,VALID,90.1745,VALID,0,VALID,24.1793,VALID,143,VALID,0,
2010-02-18, 02:55:04,VALID,1009.89,VALID,0,VALID,90.1593,VALID,0,VALID,24.1988,VALID,145,VALID,0,
2010-02-18, 02:56:04,VALID,1009.89,VALID,0,VALID,90.1822,VALID,0,VALID,24.2007,VALID,146,VALID,0,
2010-02-18, 02:57:04,VALID,1009.88,VALID,0,VALID,90.1669,VALID,0,VALID,24.2007,VALID,146,VALID,0,
2010-02-18, 02:58:04,VALID,1009.89,VALID,0,VALID,90.1898,VALID,0.105969,VALID,24.2007,VALID,146,VALID,0,
2010-02-18, 02:59:04,VALID,1009.92,VALID,0,VALID,90.1974,VALID,0,VALID,24.1812,VALID,146,VALID,0,
2010-02-18, 03:00:04,VALID,1009.93,VALID,0,VALID,90.205,VALID,0,VALID,24.1812,VALID,146,VALID,0,
2010-02-18, 03:01:04,VALID,1009.93,VALID,0,VALID,90.1898,VALID,0,VALID,24.1812,VALID,146,VALID,0,
2010-02-18, 03:02:04,VALID,1009.91,VALID,0,VALID,90.1822,VALID,0,VALID,24.1812,VALID,146,VALID,0,
2010-02-18, 03:03:04,VALID,1009.95,VALID,0,VALID,90.1974,VALID,0,VALID,24.1812,VALID,146,VALID,0,
2010-02-18, 03:04:04,VALID,1009.96,VALID,0,VALID,90.1898,VALID,0,VALID,24.1812,VALID,146,VALID,0,
2010-02-18, 03:05:04,VALID,1009.99,VALID,0,VALID,90.205,VALID,0,VALID,24.1793,VALID,146,VALID,0,
2010-02-18, 03:06:04,VALID,1009.99,VALID,0,VALID,90.2127,VALID,0,VALID,24.2007,VALID,146,VALID,0,
2010-02-18, 03:07:04,VALID,1009.98,VALID,0,VALID,90.2355,VALID,0,VALID,24.1793,VALID,146,VALID,0,
2010-02-18, 03:08:04,VALID,1009.96,VALID,0,VALID,90.2508,VALID,0,VALID,24.2007,VALID,146,VALID,0,
2010-02-18, 03:09:04,VALID,1010,VALID,0,VALID,90.2355,VALID,0,VALID,24.1812,VALID,146,VALID,0,
2010-02-18, 03:10:04,VALID,1010.02,VALID,0,VALID,90.2279,VALID,0,VALID,24.1599,VALID,146,VALID,0,
2010-02-18, 03:11:04,VALID,1009.99,VALID,0,VALID,90.2279,VALID,0,VALID,24.1812,VALID,146,VALID,0,
2010-02-18, 03:12:04,VALID,1009.97,VALID,0,VALID,90.2508,VALID,0,VALID,24.1599,VALID,146,VALID,0,
2010-02-18, 03:13:04,VALID,1009.98,VALID,0,VALID,90.2355,VALID,0,VALID,24.2007,VALID,146,VALID,0,
2010-02-18, 03:14:04,VALID,1009.96,VALID,0,VALID,90.2432,VALID,0,VALID,24.1812,VALID,146,VALID,0,
2010-02-18, 03:15:04,VALID,1009.94,VALID,0,VALID,90.2432,VALID,0,VALID,24.1793,VALID,146,VALID,0,
2010-02-18, 03:16:04,VALID,1009.93,VALID,0,VALID,90.2584,VALID,0.105969,VALID,24.2007,VALID,156,VALID,0,
2010-02-18, 03:17:04,VALID,1009.91,VALID,0,VALID,90.2508,VALID,0,VALID,24.2007,VALID,198,VALID,0,
2010-02-18, 03:18:04,VALID,1009.89,VALID,0,VALID,90.2508,VALID,0.105969,VALID,24.2202,VALID,214,VALID,0,
2010-02-18, 03:19:04,VALID,1009.88,VALID,0,VALID,90.2432,VALID,0,VALID,24.2007,VALID,227,VALID,0,
2010-02-18, 03:20:04,VALID,1009.87,VALID,0,VALID,90.2355,VALID,0,VALID,24.1988,VALID,231,VALID,0,
2010-02-18, 03:21:04,VALID,1009.87,VALID,0,VALID,90.2355,VALID,0,VALID,24.2202,VALID,231,VALID,0,
2010-02-18, 03:22:04,VALID,1009.85,VALID,0,VALID,90.2432,VALID,0.105969,VALID,24.2396,VALID,235,VALID,0,
2010-02-18, 03:23:04,VALID,1009.87,VALID,0,VALID,90.2432,VALID,0,VALID,24.2202,VALID,254,VALID,0,
2010-02-18, 03:24:04,VALID,1009.83,VALID,0,VALID,90.2432,VALID,0.105969,VALID,24.1988,VALID,254,VALID,0,
2010-02-18, 03:25:04,VALID,1009.86,VALID,0,VALID,90.266,VALID,0.105969,VALID,24.1988,VALID,221,VALID,0,
2010-02-18, 03:26:04,VALID,1009.84,VALID,0,VALID,90.2584,VALID,0.105969,VALID,24.1988,VALID,222,VALID,0,
2010-02-18, 03:27:04,VALID,1009.82,VALID,0,VALID,90.2432,VALID,0.105969,VALID,24.2202,VALID,227,VALID,0,
2010-02-18, 03:28:04,VALID,1009.79,VALID,0,VALID,90.2355,VALID,0.105969,VALID,24.2007,VALID,242,VALID,0,
2010-02-18, 03:29:04,VALID,1009.76,VALID,0,VALID,90.2355,VALID,0,VALID,24.2396,VALID,227,VALID,0,
2010-02-18, 03:30:04,VALID,1009.76,VALID,0,VALID,90.2355,VALID,0.105969,VALID,24.2183,VALID,240,VALID,0,
2010-02-18, 03:31:04,VALID,1009.76,VALID,0,VALID,90.2508,VALID,0.105969,VALID,24.2396,VALID,259,VALID,0,
2010-02-18, 03:32:04,VALID,1009.73,VALID,0,VALID,90.2355,VALID,0,VALID,24.2378,VALID,259,VALID,0,
2010-02-18, 03:33:04,VALID,1009.74,VALID,0,VALID,90.2279,VALID,0,VALID,24.2396,VALID,259,VALID,0,
2010-02-18, 03:34:04,VALID,1009.71,VALID,0,VALID,90.2508,VALID,0,VALID,24.2378,VALID,257,VALID,0,
2010-02-18, 03:35:04,VALID,1009.69,VALID,0,VALID,90.2355,VALID,0,VALID,24.2396,VALID,257,VALID,0,
2010-02-18, 03:36:04,VALID,1009.65,VALID,0,VALID,90.2355,VALID,0.105969,VALID,24.2378,VALID,257,VALID,0,
2010-02-18, 03:37:04,VALID,1009.65,VALID,0,VALID,90.266,VALID,0,VALID,24.2591,VALID,257,VALID,0,
2010-02-18, 03:38:04,VALID,1009.67,VALID,0,VALID,90.2508,VALID,0,VALID,24.2591,VALID,257,VALID,0,
2010-02-18, 03:39:04,VALID,1009.61,VALID,0,VALID,90.2355,VALID,0,VALID,24.2396,VALID,257,VALID,0,
2010-02-18, 03:40:04,VALID,1009.61,VALID,0,VALID,90.2584,VALID,0,VALID,24.2378,VALID,257,VALID,0,
2010-02-18, 03:41:04,VALID,1009.6,VALID,0,VALID,90.2432,VALID,0,VALID,24.2591,VALID,257,VALID,0,
2010-02-18, 03:42:04,VALID,1009.6,VALID,0,VALID,90.266,VALID,0,VALID,24.2573,VALID,257,VALID,0,
2010-02-18, 03:43:04,VALID,1009.6,VALID,0,VALID,90.266,VALID,0,VALID,24.2591,VALID,257,VALID,0,
2010-02-18, 03:44:04,VALID,1009.59,VALID,0,VALID,90.2355,VALID,0.105969,VALID,24.2378,VALID,257,VALID,0,
2010-02-18, 03:45:04,VALID,1009.61,VALID,0,VALID,90.2432,VALID,0.105969,VALID,24.2378,VALID,257,VALID,0,
2010-02-18, 03:46:04,VALID,1009.6,VALID,0,VALID,90.266,VALID,0,VALID,24.2786,VALID,257,VALID,0,
2010-02-18, 03:47:04,VALID,1009.59,VALID,0,VALID,90.2813,VALID,0,VALID,24.2573,VALID,257,VALID,0,
2010-02-18, 03:48:04,VALID,1009.59,VALID,0,VALID,90.2737,VALID,0,VALID,24.2591,VALID,257,VALID,0,
2010-02-18, 03:49:04,VALID,1009.6,VALID,0,VALID,90.2584,VALID,0,VALID,24.2786,VALID,257,VALID,0,
2010-02-18, 03:50:04,VALID,1009.6,VALID,0,VALID,90.266,VALID,0,VALID,24.2786,VALID,257,VALID,0,
2010-02-18, 03:51:04,VALID,1009.59,VALID,0,VALID,90.2813,VALID,0.105969,VALID,24.2591,VALID,257,VALID,0,